CAPE
511 545 304 394 132 149 48 93 158 141 99 86 130 232 28 92 1 0 0 0 0 16 207 650 1411 2048 2353 2866 2674 2749 2503 2551 3036 2964 2456 2158 2168 2287 2312 2123 2116 2035 1867 1860 1927 1770 1546 1466 1395
671 364 310 18 96 15 91 84 77 163 142 187 189 89 35 12 1 0 8 0 65 142 325 670 1599 2223 2390 2609 2730 2825 2541 2461 3148 2922 2500 2240 2204 2249 2051 2052 2002 1878 1844 1795 1769 1899 1929 1646 1424
463 174 210 367 65 2 89 63 193 115 147 55 179 118 12 24 12 13 16 52 197 313 544 878 1705 2248 2375 2331 2591 2726 2675 2436 2907 2476 1991 1955 1944 1978 1903 1858 1851 1882 1844 1824 1803 1795 1752 1873 1579
96 2 37 708 160 96 186 299 493 277 192 220 114 9 63 61 72 69 81 33 160 404 738 1648 2167 1906 2232 2350 2517 2183 2181 2133 2601 2662 2037 1893 1938 1821 1713 1727 1744 1774 1838 1790 1770 1773 1651 1716 1896
98 261 255 355 249 186 292 39 392 386 331 243 27 96 87 92 88 85 30 42 195 476 826 1459 2199 2533 2531 2594 2286 2311 1995 1890 2504 2709 1952 1843 1927 1712 1592 1541 1640 1725 1677 1754 1584 1533 1647 1588 1754
574 271 340 93 122 195 319 266 415 355 335 261 178 82 38 106 132 71 78 147 367 712 1021 1337 2063 2192 2651 2184 1884 2053 1799 1809 2405 2537 2231 2070 2038 1901 1605 1535 1524 1632 1812 1811 1568 1481 1669 1753 1654
108 93 94 8 137 223 380 421 283 366 318 324 206 84 119 154 171 216 282 361 460 802 1077 1153 1186 1191 1851 2571 1971 1981 1897 1867 2020 2070 2279 2415 2019 1918 1528 1398 1477 1559 1581 1766 1688 1449 1559 1650 1609
415 66 9 0 23 187 292 270 330 389 468 334 199 184 194 212 157 375 448 439 419 691 1135 1366 1359 1143 1705 1922 2017 2170 2232 2015 1973 2030 1898 1905 1805 1739 1627 1726 1322 1396 1356 1581 1661 1479 1554 1681 1635
599 89 1 0 14 160 314 357 382 493 377 291 424 218 162 167 318 457 462 435 513 706 1039 1318 1467 1527 1841 1977 1727 2191 2140 2130 2014 1921 2008 2371 1403 1340 1410 1631 1406 1569 1681 1396 1492 1485 1715 2169 2019
621 42 13 51 30 86 215 341 545 432 346 389 363 276 195 335 432 499 512 506 631 671 765 1188 1461 1471 1711 1756 1471 1757 1581 1660 1833 1819 1642 1614 937 777 1610 1323 759 708 1654 1603 1824 1874 1855 2066 1359
18 4 5 26 40 187 379 493 551 397 435 286 417 310 367 360 396 494 535 652 699 675 802 963 1163 1272 1411 1361 1467 1541 1265 1252 1429 1296 974 1034 773 781 854 246 104 233 765 561 690 916 1142 1312 530
0 0 3 27 32 80 327 474 707 526 468 421 464 400 399 423 473 537 555 684 738 843 918 870 945 1107 1007 1024 1534 1247 1023 679 755 775 782 1035 767 618 329 109 387 480 732 533 785 659 987 1091 694
0 0 0 7 60 11 51 418 689 565 582 599 555 577 569 450 454 503 569 590 862 941 937 848 992 1076 933 958 1024 1055 797 502 433 561 801 1094 1018 723 327 373 512 631 624 606 845 782 1035 934 571
0 0 0 0 17 73 21 32 152 518 689 735 630 632 690 571 546 466 551 650 744 979 951 965 1049 971 1030 1289 890 943 804 562 497 690 1012 1080 884 774 496 476 721 904 872 792 924 864 542 206 38
0 0 0 0 0 21 12 67 632 672 679 802 766 721 699 644 556 444 491 568 746 774 816 964 1075 1034 1187 1327 781 948 1076 983 977 884 1100 1113 1114 850 821 936 779 996 967 1128 728 498 244 57 14
0 0 0 0 0 1 48 97 744 721 736 860 900 908 820 793 654 627 441 436 696 727 820 873 1086 1290 1309 1111 1455 1482 1430 1034 1055 918 1096 1228 1099 967 1275 1173 1178 949 654 912 702 620 451 201 18
0 0 0 0 0 14 39 31 325 724 690 661 718 887 865 884 829 797 575 475 628 904 1023 947 991 1197 1200 1079 1672 1429 1234 905 838 1203 1331 1179 1151 1360 1245 931 947 823 799 699 601 527 252 59 0
0 0 0 0 0 5 30 9 5 779 729 679 617 521 630 764 890 868 629 388 588 975 1148 1169 1180 971 1087 1118 1422 1162 1127 794 1142 1075 1070 1380 1434 1494 1170 1100 1043 703 1010 891 434 218 16 0 0
0 0 0 0 0 0 0 12 24 339 608 646 662 591 515 557 679 613 557 452 493 791 1127 1203 1219 892 1023 1198 1170 1065 1097 997 901 1355 848 1302 1325 1215 920 964 1131 1098 1039 665 255 89 0 0 0
0 0 0 0 0 0 10 4 5 45 170 334 409 465 512 462 417 478 509 394 516 768 1069 1214 1173 905 938 958 947 1138 1152 1177 1104 1391 1065 975 903 820 1076 984 1069 1231 1014 693 347 78 0 0 0
0 0 0 0 0 1 7 37 10 0 18 60 124 167 292 280 351 390 475 399 490 710 872 911 1129 1114 1104 1119 1077 1225 1134 1110 1332 1232 1045 1138 1122 1007 1249 1265 1051 928 954 888 245 110 0 0 5
0 0 0 1 0 0 9 1 46 0 7 1 44 84 123 116 93 175 409 421 442 621 725 754 987 1370 1266 1233 1174 1161 1053 1079 1282 1131 1221 1399 1323 1279 1406 898 923 759 689 535 290 2 0 0 0
0 0 0 0 0 0 0 0 0 22 0 0 0 42 128 72 61 31 263 377 417 484 712 679 672 1539 1503 1424 1312 1221 1217 988 1008 1041 1196 1302 1606 1514 1292 1110 869 875 674 324 54 29 0 44 5
0 0 0 0 0 0 0 0 0 0 1 0 3 32 51 83 50 6 93 230 338 401 696 777 661 825 1551 1575 1497 1476 1384 1163 978 963 1058 1333 1533 1589 1461 1127 1142 1171 677 280 7 0 0 57 78
0 0 0 0 0 0 0 0 0 0 0 0 27 38 92 108 89 9 12 105 173 305 589 932 874 762 1137 1635 1603 1504 1380 1324 1046 903 1047 1406 1487 1617 1505 1337 1419 1284 807 510 69 7 1 18 45
0 0 0 0 0 0 0 0 0 0 0 8 23 24 16 113 94 41 22 86 100 246 610 941 1092 981 1198 1315 1502 1490 1434 1222 1096 961 1099 1199 1399 1630 1388 1407 1124 965 800 521 3 5 13 36 11
0 0 0 0 0 0 0 0 0 0 0 0 8 32 22 124 116 67 50 78 160 257 582 910 1342 1240 1374 1573 1274 1502 1578 1360 1263 1227 1315 1261 1325 1320 1144 1234 1364 1132 813 314 73 13 15 57 16
0 0 0 0 0 0 0 0 0 0 0 0 13 17 39 114 200 101 31 126 279 256 633 1049 1420 1454 1656 1821 1651 1450 1494 1668 1556 1390 1413 1652 1462 1285 1250 1432 1523 1139 695 417 269 67 64 35 110
0 0 0 0 0 0 0 0 0 0 0 0 11 31 36 147 225 141 99 125 310 391 810 1203 1449 1449 1754 1976 1894 1880 1672 1448 1802 1760 1538 1570 1497 1288 1285 1302 1198 831 643 628 480 127 58 4 62
0 0 0 0 0 0 0 0 0 0 0 0 0 23 207 284 207 153 158 125 291 572 953 1157 1668 1676 1772 2108 2111 2034 2070 1873 1607 1564 1575 1661 1665 1639 1385 1423 1180 881 783 815 601 236 54 32 3
CIN
-59 -12 -16 -6 0 -10 -34 -26 -25 -28 -38 -67 -55 -46 -116 -83 -32 0 0 0 0 -63 -14 -5 -1 0 0 0 0 0 0 0 0 0 0 0 0 0 0 0 0 0 0 0 0 0 -4 -7 -6
-3 -14 -11 -19 -5 -48 -59 -41 -35 -41 -70 -57 -63 -84 -89 -166 -105 0 -36 -4 -56 -26 -7 -6 0 0 0 0 0 0 0 0 0 0 0 0 0 0 0 0 0 0 0 0 0 0 0 -1 -9
-8 -70 -27 -1 -50 -7 -36 -40 -43 -99 -61 -48 -59 -72 -163 -159 -167 -154 -116 -60 -20 -10 -5 -5 0 0 0 0 0 0 0 0 0 0 -2 -3 0 0 0 0 0 0 0 0 0 0 0 0 -8
-76 -1 -72 0 -63 -1 -77 -88 -26 -78 -83 -53 -102 -188 -100 -91 -99 -143 -96 -116 -36 -11 -4 0 0 0 0 0 0 0 0 0 0 0 -2 -2 0 0 0 -1 -1 0 0 0 0 -3 -17 -12 -6
-235 -126 -57 -46 -23 -38 -101 -217 -120 -55 -75 -81 -147 -120 -106 -51 -101 -133 -129 -108 -61 -27 -8 0 0 0 0 0 0 0 0 0 0 0 -2 -1 0 -4 -2 -7 -7 -7 -4 -4 -18 -28 -27 -26 -16
-75 -148 -70 -2 0 -46 -118 -89 -155 -45 -90 -130 -129 -150 -141 -71 -118 -120 -115 -95 -71 -36 -4 0 0 0 0 0 0 0 -3 -1 0 0 0 0 -1 -8 -24 -28 -15 -13 -6 -8 -24 -37 -29 -30 -30
-58 -56 -122 -18 -7 -64 -88 -149 -90 -150 -137 -108 -156 -183 -114 -68 -85 -98 -79 -60 -69 -41 -7 -1 -1 -3 0 0 0 0 0 0 0 -1 -1 0 -11 -14 -24 -31 -19 -14 -12 -12 -27 -49 -49 -42 -29
-76 -60 -91 -48 -140 -19 -66 -83 -123 -141 -119 -147 -158 -194 -171 -111 -80 -47 -25 -26 -71 -45 -11 0 -2 -3 0 0 0 0 0 0 -3 -6 -10 -15 -14 -17 -12 -16 -39 -31 -18 -19 -30 -48 -47 -42 -32
-64 -51 -41 0 -66 -34 -53 -102 -103 -99 -168 -133 -95 -209 -168 -157 -65 -42 -35 -52 -50 -38 -21 -1 -1 -2 -1 0 0 -1 0 0 -3 -12 -17 -8 -30 -30 -52 -24 -44 -28 -17 -31 -39 -44 -47 -36 -24
-52 -89 -61 -60 -39 -68 -85 -93 -143 -136 -120 -117 -189 -169 -149 -98 -68 -53 -43 -64 -41 -40 -33 -18 -1 -3 -1 0 -7 -8 -12 -25 -24 -29 -41 -33 -69 -74 -57 -84 -57 -93 -31 -32 -30 -32 -35 -33 -58
-15 -72 -3 -51 -29 -52 -65 -95 -125 -167 -145 -234 -218 -197 -145 -106 -81 -64 -69 -53 -72 -76 -53 -38 -28 -26 -16 -20 -21 -28 -43 -55 -55 -62 -78 -73 -51 -53 -37 -117 -97 -29 -131 -77 -140 -86 -106 -70 -13
0 0 -1 -1 -1 -27 -63 -100 -123 -165 -131 -190 -257 -250 -183 -133 -105 -91 -87 -62 -52 -59 -62 -67 -55 -51 -60 -55 -37 -70 -83 -102 -105 -98 -90 -22 -109 -41 -23 -70 -37 -44 -95 -28 -109 -17 -10 -28 -27
0 0 -3 -14 -2 -12 -35 -72 -132 -104 -168 -162 -172 -167 -161 -135 -122 -106 -84 -76 -59 -58 -51 -72 -65 -69 -81 -66 -82 -88 -104 -130 -108 -82 -95 -18 -19 -20 -43 -58 -83 -38 -54 -43 -64 -160 -32 -26 -33
0 0 0 0 -3 -1 -1 -34 -83 -110 -144 -174 -165 -170 -145 -136 -110 -99 -89 -77 -86 -54 -58 -72 -75 -85 -86 -32 -86 -92 -98 -110 -53 -99 -76 -24 -36 -20 -13 -39 -37 -24 -15 -36 -29 -39 -25 -56 -50
0 0 0 0 0 -3 -28 -93 -117 -169 -209 -185 -168 -167 -151 -129 -107 -127 -119 -105 -100 -90 -97 -87 -73 -89 -70 -37 -109 -55 -84 -64 -7 -65 -40 -86 -34 -23 -27 -31 -28 -30 -38 -27 -28 -21 -54 -92 -71
0 0 0 0 0 -4 -8 -117 -145 -147 -175 -177 -183 -144 -140 -88 -66 -39 -42 -129 -101 -101 -126 -98 -80 -70 -29 -73 -49 -27 -10 -16 -19 -24 -55 -84 -24 -33 -31 -34 -30 -25 -23 -23 -26 -30 -24 -48 -20
0 0 0 0 0 -45 -14 -8 -111 -152 -104 -127 -140 -153 -113 -89 -70 -32 -45 -133 -121 -145 -126 -129 -85 -74 -40 -78 -26 -28 -12 -32 -50 -45 -48 -48 -58 -70 -38 -44 -34 -23 -65 -10 -7 -16 -24 -40 0
0 0 0 0 0 -61 -19 -30 -129 -128 -123 -156 -144 -143 -92 -142 -150 -77 -55 -63 -150 -148 -122 -121 -101 -115 -88 -96 -34 -53 -23 -9 -60 -44 -30 -76 -59 -40 -21 -44 -20 -14 -16 -9 -16 -31 -18 0 0
0 0 0 0 0 0 -22 -55 -89 -183 -139 -165 -188 -171 -137 -92 -94 -114 -59 -69 -102 -128 -120 -123 -105 -149 -134 -79 -51 -77 -58 -57 -80 -37 -40 -24 -32 -35 -40 -56 -30 -8 -12 -10 -38 -49 0 0 0
0 0 0 0 0 0 -19 -44 -38 -168 -177 -213 -215 -192 -187 -131 -118 -101 -87 -108 -87 -206 -163 -136 -142 -153 -87 -106 -119 -76 -69 -68 -72 -22 -29 -21 -12 -103 -58 -29 -33 -17 -14 -30 -39 -102 0 0 0
0 0 0 0 0 -9 -52 -125 -59 -1 -137 -136 -186 -218 -226 -164 -143 -119 -104 -148 -121 -196 -187 -193 -208 -142 -113 -91 -129 -61 -64 -55 -25 -23 -32 -53 -24 -96 -54 -19 -36 -35 -35 -24 -84 -115 0 0 -47
0 0 0 -10 0 0 -19 -5 -103 -17 -51 -7 -170 -152 -273 -236 -211 -206 -156 -149 -218 -235 -216 -191 -195 -221 -143 -104 -158 -119 -119 -95 -52 -47 -29 -60 -86 -76 -27 -39 -55 -63 -68 -90 -107 -4 0 0 0
0 0 0 -1 0 0 0 0 0 -107 0 0 0 -191 -192 -245 -303 -237 -300 -228 -198 -266 -290 -260 -191 -212 -201 -173 -104 -146 -80 -123 -77 -64 -35 -30 -54 -52 -47 -47 -75 -75 -94 -138 -199 -231 0 -183 -86
0 0 0 0 0 0 0 0 0 0 -20 0 -58 -164 -109 -41 -266 -81 -310 -288 -263 -274 -311 -309 -276 -271 -210 -167 -110 -105 -104 -100 -111 -73 -53 -28 -86 -40 -34 -46 -63 -63 -107 -140 -79 0 0 -199 -121
0 0 0 0 0 0 0 0 0 0 0 0 -134 -99 -103 -93 -67 -158 -260 -326 -322 -325 -388 -355 -348 -307 -240 -175 -138 -143 -143 -104 -127 -99 -47 -34 -72 -37 -45 -47 -56 -72 -108 -126 -243 -276 -145 -262 -167
0 0 0 0 0 0 0 0 0 0 0 -202 -67 -71 -37 -86 -108 -299 -272 -360 -361 -367 -457 -420 -387 -325 -266 -221 -194 -189 -154 -140 -143 -114 -135 -116 -80 -47 -74 -79 -86 -105 -114 -135 -10 -340 -331 -274 -251
0 0 0 0 0 0 0 0 0 0 0 0 -95 -76 -70 -49 -67 -69 -336 -336 -370 -413 -514 -494 -405 -349 -311 -265 -263 -224 -181 -158 -135 -116 -84 -124 -90 -99 -69 -128 -74 -93 -114 -173 -207 -372 -304 -288 -257
0 0 0 0 0 0 0 0 0 0 0 0 -63 -146 -74 -61 -53 -57 -90 -420 -403 -403 -514 -504 -451 -403 -347 -291 -283 -275 -214 -154 -97 -81 -128 -69 -76 -99 -118 -81 -71 -120 -153 -123 -173 -346 -310 -328 -219
0 0 0 0 0 0 0 0 0 0 0 0 -145 -164 -152 -45 -64 -61 -74 -371 -423 -416 -521 -502 -467 -395 -342 -285 -270 -247 -236 -204 -100 -74 -112 -123 -95 -92 -121 -101 -121 -136 -120 -164 -141 -226 -316 -366 -253
0 0 0 0 0 0 0 0 0 0 0 0 -11 -119 -77 -63 -45 -52 -73 -80 -350 -418 -494 -512 -471 -418 -384 -320 -258 -251 -215 -206 -187 -168 -162 -128 -116 -86 -93 -104 -116 -125 -121 -151 -155 -182 -312 -314 -321
Wind_Speed
3 2 3 6 8 13 nan nan 7 1 nan nan 7 5 nan nan nan nan nan nan nan nan 12 8 6 7 8 6 6 7 7 9 7 8 8 8 9 9 9 8 6 6 5 4 3 5 4 4 6
3 3 12 nan nan nan nan nan nan 3 2 8 6 nan nan nan nan nan nan nan nan 9 12 9 8 8 9 7 6 7 8 7 8 9 10 10 10 7 6 6 5 4 3 1 3 4 3 3 3
11 15 13 24 nan nan nan nan 7 5 11 nan 6 2 nan nan nan nan nan nan 4 8 9 8 9 10 11 9 8 8 7 8 9 11 11 9 7 5 5 4 5 5 3 1 1 1 3 4 5
nan nan nan 36 29 nan 6 18 14 10 14 4 8 nan nan nan nan nan nan nan 6 8 8 10 12 12 11 9 8 9 9 10 10 10 8 6 7 7 7 5 5 5 4 3 3 4 4 3 3
nan 11 19 18 27 12 15 nan 26 21 11 10 nan nan nan nan nan nan nan nan 4 6 7 7 12 11 10 10 10 9 10 11 10 8 6 6 8 7 6 6 9 8 6 7 6 6 5 3 4
7 12 19 nan 9 15 19 29 19 13 11 11 8 nan nan 7 7 nan nan 3 6 5 5 6 11 12 11 11 11 11 12 12 10 9 8 9 10 10 11 11 10 9 7 7 7 7 7 7 6
10 nan nan nan 3 13 25 31 27 30 25 13 9 nan 3 8 2 2 3 5 6 6 4 6 9 12 13 10 13 14 15 16 14 14 12 13 15 17 16 11 10 10 9 9 11 9 9 8 5
6 nan nan nan nan 17 29 22 28 30 15 22 18 4 8 7 9 5 5 10 9 5 3 6 9 9 9 9 14 15 17 17 17 15 16 18 17 17 17 14 16 17 16 13 16 17 17 14 10
6 nan nan nan nan 18 29 28 22 11 21 14 3 10 14 7 8 6 8 9 9 3 4 8 8 7 8 10 12 14 17 16 16 19 25 20 17 19 21 19 22 20 18 17 20 20 19 21 20
13 nan nan nan nan nan 31 39 28 18 27 9 22 19 13 11 7 9 11 13 10 5 7 8 9 10 10 11 13 13 14 15 16 17 17 16 18 18 18 16 18 16 15 16 21 21 19 18 15
nan nan nan nan nan 34 33 31 31 36 25 37 34 26 18 10 6 11 15 15 9 6 6 9 11 11 11 12 12 16 16 15 16 18 17 15 15 15 9 15 14 14 14 13 16 16 14 13 15
nan nan nan nan nan nan 43 38 30 34 18 31 38 34 25 17 7 9 13 11 6 6 9 11 13 10 12 11 11 15 15 15 16 18 17 15 12 19 12 15 15 13 14 16 16 15 14 13 10
nan nan nan nan nan nan nan 42 37 23 28 29 31 31 25 15 10 8 10 5 4 7 10 12 11 10 11 9 10 12 14 13 16 16 14 16 15 14 13 13 12 13 13 14 16 15 13 13 8
nan nan nan nan nan nan nan nan 31 33 35 32 34 34 26 18 8 7 7 8 6 8 10 12 11 10 9 9 9 9 9 12 12 14 11 14 12 11 11 12 10 12 12 13 13 13 13 12 nan
nan nan nan nan nan nan nan nan 33 35 38 38 36 32 29 17 11 11 9 7 7 10 10 11 9 11 10 10 7 6 10 11 13 11 9 11 11 12 13 11 10 12 11 15 13 11 10 nan nan
nan nan nan nan nan nan nan nan 37 38 34 43 41 34 30 19 15 13 12 9 9 9 8 9 8 7 8 10 9 9 8 7 6 6 7 10 11 11 10 10 11 11 12 15 15 14 12 12 nan
nan nan nan nan nan nan nan nan 35 37 38 38 37 41 29 20 16 14 14 10 9 9 7 6 7 7 8 6 5 6 6 4 4 5 5 9 10 11 11 11 12 13 15 16 17 16 17 nan nan
nan nan nan nan nan nan nan nan nan 38 38 37 30 34 29 21 20 13 14 9 6 6 7 8 9 9 7 4 3 1 1 4 4 5 7 10 10 13 13 13 15 19 20 16 15 16 nan nan nan
nan nan nan nan nan nan nan nan nan 43 32 32 31 28 23 21 15 16 8 9 5 6 10 13 11 10 7 1 1 1 4 4 2 2 7 11 12 13 15 16 19 20 19 18 18 nan nan nan nan
nan nan nan nan nan nan nan nan nan nan 30 31 25 25 22 17 16 13 12 9 9 10 12 12 13 12 9 6 5 1 2 3 3 1 5 8 11 13 15 17 18 19 18 19 21 nan nan nan nan
nan nan nan nan nan nan nan nan nan nan nan nan 22 25 19 19 19 18 16 12 13 13 13 13 14 16 14 10 6 5 5 5 3 1 1 6 11 13 15 15 17 19 21 21 21 24 nan nan nan
nan nan nan nan nan nan nan nan nan nan nan nan nan nan 16 13 nan 19 24 22 20 21 21 19 14 15 15 16 13 10 5 4 3 4 5 8 12 14 14 15 16 20 18 20 20 nan nan nan nan
nan nan nan nan nan nan nan nan nan nan nan nan nan nan 24 nan nan nan 23 24 24 24 23 24 22 19 19 18 16 10 7 5 6 10 9 10 12 17 16 16 16 16 13 14 nan nan nan nan nan
nan nan nan nan nan nan nan nan nan nan nan nan nan nan nan nan nan nan nan 20 21 21 22 22 24 22 20 19 20 18 12 8 8 11 12 11 13 17 16 14 13 13 11 18 nan nan nan nan nan
nan nan nan nan nan nan nan nan nan nan nan nan nan nan nan 23 nan nan nan 17 19 23 24 21 24 24 22 19 17 19 17 12 11 13 12 13 17 13 11 12 11 10 10 14 nan nan nan nan nan
nan nan nan nan nan nan nan nan nan nan nan nan nan nan nan 32 nan nan nan nan 18 21 27 26 27 26 25 20 17 15 18 14 13 13 13 13 17 9 12 11 8 10 14 15 nan nan nan nan nan
nan nan nan nan nan nan nan nan nan nan nan nan nan nan nan 29 26 nan nan nan 15 18 29 26 28 28 25 22 17 17 16 15 14 15 15 17 12 5 11 12 12 14 17 18 nan nan nan nan nan
nan nan nan nan nan nan nan nan nan nan nan nan nan nan nan 28 32 32 nan 28 24 24 22 26 29 29 26 23 19 16 16 17 13 15 15 17 4 5 8 12 16 18 16 18 22 nan nan nan 29
nan nan nan nan nan nan nan nan nan nan nan nan nan nan nan 31 30 29 nan 30 27 27 24 24 24 26 23 19 19 18 15 13 10 12 14 9 4 5 5 10 14 19 22 22 24 28 nan nan nan
nan nan nan nan nan nan nan nan nan nan nan nan nan nan 18 26 28 27 24 27 27 25 23 26 24 24 22 20 20 16 16 13 7 9 7 6 4 5 8 11 15 17 18 24 26 30 nan nan nan
Wind_Direction
341 322 171 156 94 135 nan nan 104 271 nan nan 67 109 nan nan nan nan nan nan nan nan 93 84 37 4 349 323 309 288 282 291 320 316 317 326 328 333 324 339 350 325 310 294 263 231 207 155 149
202 76 177 nan nan nan nan nan nan 31 35 325 352 nan nan nan nan nan nan nan nan 95 102 86 21 358 349 333 316 295 301 311 311 317 330 330 327 323 332 347 341 328 306 274 229 209 185 158 136
209 282 153 95 nan nan nan nan 67 31 31 nan 60 211 nan nan nan nan nan nan 62 74 79 64 10 4 352 342 325 303 318 304 310 320 320 328 327 1 17 1 349 344 0 23 118 79 111 119 137
nan nan nan 74 73 nan 96 162 71 40 65 74 335 nan nan nan nan nan nan nan 62 52 62 26 6 6 1 350 328 331 329 328 330 330 328 338 12 23 28 35 29 33 37 75 87 73 70 77 95
nan 341 36 66 76 31 9 nan 46 37 24 354 nan nan nan nan nan nan nan nan 29 53 51 36 15 13 9 359 354 344 344 353 350 345 353 18 32 28 50 49 35 42 52 59 62 71 89 87 64
21 55 93 nan 70 15 10 18 30 351 305 300 287 nan nan 271 292 nan nan 13 8 21 53 46 20 20 23 14 8 8 11 21 26 27 38 43 34 41 52 49 43 40 36 52 56 62 74 80 90
72 nan nan nan 26 350 12 10 14 331 336 330 315 nan 348 315 2 271 359 355 5 353 52 72 60 44 29 31 30 30 36 40 43 44 50 50 46 48 50 57 65 67 53 56 68 78 81 83 79
108 nan nan nan nan 10 18 3 347 336 332 324 324 3 30 345 311 288 313 346 340 342 51 94 91 80 78 76 44 43 44 46 49 54 56 57 55 59 68 58 63 68 71 66 63 68 76 74 71
231 nan nan nan nan 360 4 355 358 333 324 3 85 328 335 332 303 281 308 325 325 341 56 90 94 98 99 95 73 54 51 54 56 59 62 73 83 92 80 75 82 78 72 71 70 67 76 84 83
240 nan nan nan nan nan 352 357 341 348 355 343 282 306 313 309 312 297 311 326 329 353 62 72 76 72 88 87 91 84 87 91 89 82 84 79 84 82 78 64 79 84 86 75 76 74 71 80 73
nan nan nan nan nan 352 348 344 348 349 9 334 324 327 315 303 323 323 315 326 344 26 79 69 62 67 86 98 104 107 98 95 95 85 83 71 75 65 91 73 91 75 74 63 79 79 65 61 40
nan nan nan nan nan nan 349 341 341 0 9 345 337 334 325 324 310 309 312 321 356 46 64 53 58 67 89 110 101 97 95 97 91 82 71 65 81 65 67 66 64 64 64 61 57 56 62 54 42
nan nan nan nan nan nan nan 340 331 10 347 347 345 339 334 327 335 351 345 356 12 64 63 52 54 76 89 95 100 100 94 93 89 85 63 62 58 52 52 60 58 61 64 53 48 42 29 30 18
nan nan nan nan nan nan nan nan 328 326 349 352 353 352 345 340 2 32 12 12 64 54 61 56 47 62 75 88 81 90 91 93 92 84 65 54 48 49 53 54 52 56 47 59 37 28 8 359 nan
nan nan nan nan nan nan nan nan 330 329 348 356 357 358 353 345 10 22 32 63 58 73 48 46 34 51 57 58 67 91 83 63 71 75 42 33 33 40 27 29 31 36 18 23 20 16 1 nan nan
nan nan nan nan nan nan nan nan 326 345 337 356 354 356 360 354 12 38 48 55 62 60 58 50 48 47 61 57 62 76 93 90 93 77 37 19 21 18 23 13 12 12 3 352 348 353 351 346 nan
nan nan nan nan nan nan nan nan 332 354 355 357 359 350 2 360 15 45 59 56 58 48 40 37 66 52 57 74 75 71 59 95 63 70 26 18 21 21 9 7 8 350 343 338 334 335 334 nan nan
nan nan nan nan nan nan nan nan nan 348 355 1 356 351 352 1 18 38 54 64 32 10 16 24 34 34 35 63 84 110 80 79 73 25 15 9 17 9 4 356 359 342 340 338 336 326 nan nan nan
nan nan nan nan nan nan nan nan nan 340 356 5 9 2 346 10 8 20 26 38 16 14 4 13 14 21 3 356 343 85 81 108 121 1 25 12 11 8 357 347 345 340 335 339 329 nan nan nan nan
nan nan nan nan nan nan nan nan nan nan 346 347 352 357 348 23 10 352 4 354 3 2 6 357 360 358 5 359 2 5 148 122 133 9 50 12 6 357 347 346 340 333 320 327 321 nan nan nan nan
nan nan nan nan nan nan nan nan nan nan nan nan 8 358 351 16 21 4 358 350 348 346 349 355 349 349 346 343 299 232 217 204 222 153 1 7 356 349 338 335 320 325 325 330 326 320 nan nan nan
nan nan nan nan nan nan nan nan nan nan nan nan nan nan 3 18 nan 13 4 2 354 353 350 344 332 333 332 332 328 343 332 320 345 308 307 329 345 341 323 315 325 328 339 338 331 nan nan nan nan
nan nan nan nan nan nan nan nan nan nan nan nan nan nan 352 nan nan nan 15 17 12 357 351 347 342 334 331 330 326 323 304 315 264 272 300 309 317 319 314 325 341 338 347 347 nan nan nan nan nan
nan nan nan nan nan nan nan nan nan nan nan nan nan nan nan nan nan nan nan 3 10 358 349 342 335 330 324 330 325 325 323 305 271 268 281 292 300 304 322 343 348 337 328 329 nan nan nan nan nan
nan nan nan nan nan nan nan nan nan nan nan nan nan nan nan 335 nan nan nan 353 344 353 346 328 325 323 315 321 326 325 318 313 294 278 280 289 292 296 333 348 357 338 329 339 nan nan nan nan nan
nan nan nan nan nan nan nan nan nan nan nan nan nan nan nan 341 nan nan nan nan 355 347 345 332 329 326 320 317 328 323 316 287 278 282 266 280 302 334 4 352 339 322 324 348 nan nan nan nan nan
nan nan nan nan nan nan nan nan nan nan nan nan nan nan nan 339 351 nan nan nan 356 1 354 337 325 330 332 326 318 322 314 301 282 280 280 284 306 8 349 339 328 332 333 343 nan nan nan nan nan
nan nan nan nan nan nan nan nan nan nan nan nan nan nan nan 334 339 352 nan 344 339 1 351 337 328 332 335 342 337 322 309 294 279 267 281 290 288 353 316 314 327 330 336 349 354 nan nan nan 351
nan nan nan nan nan nan nan nan nan nan nan nan nan nan nan 327 334 344 nan 338 324 321 336 338 323 328 328 340 345 335 318 304 274 255 268 272 315 349 348 318 330 331 331 330 343 346 nan nan nan
nan nan nan nan nan nan nan nan nan nan nan nan nan nan 345 329 313 318 328 318 307 334 325 338 318 325 326 325 336 344 325 303 266 250 229 220 311 17 353 336 341 341 335 335 336 342 nan nan nan